Torrington, WY

3:02 PM MDT on March 26, 2017 (GMT -0600)
Torrington Municipal

Weather History for KTOR - February, 2014

Change the Weather History Date:

Tuesday, February 25, 2014

  Actual Average Record
Temperature  
Mean Temperature -1 °F 33 °F  
Max Temperature 14 °F 47 °F 62 °F (2009)
Min Temperature -16 °F 19 °F -16 °F (2014)
Degree Days  
Heating Degree Days 66 32  
Month to date heating degree days 1109 855  
Since 1 July heating degree days 4963 4750  
Cooling Degree Days 0 0  
Month to date cooling degree days 0 0  
Year to date cooling degree days 0 0  
Moisture  
Dew Point 5 °F    
Average Humidity 79    
Maximum Humidity 92    
Minimum Humidity 66    
Precipitation  
Precipitation 0.04 in 0.02 in 0.09 in (2014)
Month to date precipitation 0.56 0.30  
Year to date precipitation 0.76 0.56  
Sea Level Pressure  
Sea Level Pressure 30.33 in    
Wind  
Wind Speed 8 mph (North)    
Max Wind Speed 18 mph    
Max Gust Speed 23 mph    
Visibility 5 miles    
Events Fog , Snow    
T = Trace of Precipitation, MM = Missing Value Source: NWS Daily Summary

Daily Weather History Graph

Daily Weather History Graph

Search for Another Location

Airport or City:

Trip Planner

Search our weather history database for the weather conditions in past years. The results will help you decide how hot, cold, wet, or windy it might be!

Date:

Astronomy

Feb. 25, 2014 Rise Set
Actual Time 6:37 AM MST 5:41 PM MST
Civil Twilight 6:09 AM MST 6:10 PM MST
Nautical Twilight 5:37 AM MST 6:42 PM MST
Astronomical Twilight 5:05 AM MST 7:14 PM MST
Moon 3:37 AM MST (2/25) 1:47 PM MST (2/25)
Length of Visible Light 12h 00m
Length of Day
11h 04m
Waning Crescent, 17% of the Moon is Illuminated
Feb 25
Waning Crescent
Mar 1
New
Mar 8
First Quarter
Mar 16
Full
Mar 23
Last Quarter

Hourly Weather History & Observations

Time (MST) Temp. Windchill Dew Point Humidity Pressure Visibility Wind Dir Wind Speed Gust Speed Precip Events Conditions
12:53 AM 6.1 °F -4.3 °F 1.9 °F 83% 30.36 in 10.0 mi East 5.8 mph - N/A   Partly Cloudy
1:53 AM 6.1 °F -8.7 °F 1.9 °F 83% 30.32 in 10.0 mi SE 10.4 mph - N/A   Scattered Clouds
2:49 AM 6.8 °F -7.8 °F 1.4 °F 79% 30.10 in 10.0 mi East 10.4 mph - N/A   Mostly Cloudy
2:53 AM 6.1 °F -9.5 °F 1.9 °F 83% 30.28 in 10.0 mi East 11.5 mph - N/A   Mostly Cloudy
3:00 AM 6.1 °F -7.8 °F 1.9 °F 83% 30.09 in 10.0 mi ESE 9.2 mph - N/A   Mostly Cloudy
3:30 AM 5.0 °F -10.8 °F 1.0 °F 84% 30.06 in 10.0 mi East 11.5 mph - N/A   Scattered Clouds
3:53 AM 5.0 °F -9.1 °F 1.0 °F 84% 30.25 in 10.0 mi East 9.2 mph - N/A   Clear
4:53 AM 6.1 °F -11.6 °F 1.0 °F 80% 30.24 in 10.0 mi ENE 15.0 mph - N/A   Scattered Clouds
5:53 AM 8.1 °F -7.7 °F 3.0 °F 80% 30.26 in 10.0 mi ENE 12.7 mph - N/A   Clear
6:53 AM 9.0 °F -4.2 °F 3.0 °F 77% 30.31 in 10.0 mi NE 9.2 mph - N/A   Clear
7:39 AM 7.0 °F -10.4 °F 1.0 °F 77% 30.15 in 10.0 mi NNE 15.0 mph - N/A   Mostly Cloudy
7:53 AM 8.1 °F -7.7 °F 1.9 °F 76% 30.39 in 10.0 mi NNE 12.7 mph - N/A   Overcast
8:53 AM 9.0 °F -5.1 °F 3.0 °F 77% 30.42 in 10.0 mi NE 10.4 mph - N/A   Overcast
9:06 AM 10.0 °F -1.9 °F 3.0 °F 73% 30.20 in 10.0 mi NE 8.1 mph - N/A   Overcast
9:53 AM 10.9 °F - 3.0 °F 70% 30.45 in 8.0 mi Calm Calm - 0.00 in Snow Light Snow
10:43 AM 12.0 °F 2.7 °F 5.0 °F 73% 30.24 in 1.8 mi NNE 5.8 mph - 0.00 in Snow Light Snow
10:53 AM 12.9 °F 5.2 °F 6.1 °F 74% 30.47 in 1.2 mi North 4.6 mph - 0.00 in Snow Light Snow
11:15 AM 12.9 °F 0.7 °F 6.1 °F 74% 30.24 in 2.5 mi NE 9.2 mph - 0.00 in Snow Light Snow
11:29 AM 12.9 °F 1.6 °F 7.0 °F 77% 30.25 in 2.5 mi NNE 8.1 mph - 0.00 in Snow Light Snow
11:36 AM 12.9 °F 2.6 °F 6.1 °F 74% 30.25 in 3.0 mi NNE 6.9 mph - 0.00 in Snow Light Snow
11:43 AM 12.9 °F 2.6 °F 7.0 °F 77% 30.25 in 2.0 mi NNE 6.9 mph - 0.00 in Snow Light Snow
11:49 AM 12.2 °F 1.7 °F 6.8 °F 79% 30.25 in 1.5 mi NE 6.9 mph - 0.00 in Snow Light Snow
11:53 AM 12.9 °F 2.6 °F 7.0 °F 77% 30.47 in 1.0 mi NNE 6.9 mph - 0.00 in Snow Light Snow
12:01 PM 12.9 °F 2.6 °F 8.1 °F 81% 30.25 in 0.5 mi NNE 6.9 mph - 0.00 in Snow Snow
12:12 PM 12.0 °F 0.5 °F 7.0 °F 80% 30.26 in 0.5 mi North 8.1 mph - 0.01 in Snow Snow
12:47 PM 12.2 °F 2.9 °F 6.8 °F 79% 30.25 in 1.2 mi North 5.8 mph - 0.01 in Snow Light Snow
12:48 PM 12.0 °F 1.5 °F 7.0 °F 80% 30.47 in 1.2 mi North 6.9 mph - 0.01 in Snow Light Snow
1:23 PM 12.0 °F 2.7 °F 8.1 °F 84% 30.24 in 0.8 mi NNW 5.8 mph - 0.01 in Snow Light Snow
1:34 PM 12.9 °F 0.7 °F 8.1 °F 81% 30.25 in 1.0 mi NNW 9.2 mph - 0.01 in Snow Light Snow
1:53 PM 12.9 °F 3.8 °F 9.0 °F 84% 30.47 in 1.2 mi North 5.8 mph - 0.01 in Snow Light Snow
2:18 PM 12.9 °F 0.7 °F 9.0 °F 84% 30.26 in 0.8 mi NNW 9.2 mph - 0.00 in Snow Light Snow
2:29 PM 14.0 °F 2.0 °F 9.0 °F 80% 30.26 in 1.0 mi NNW 9.2 mph - 0.01 in Snow Light Snow
2:53 PM 14.0 °F 3.9 °F 10.0 °F 84% 30.48 in 0.8 mi WNW 6.9 mph - 0.01 in Snow Light Snow
3:00 PM 14.0 °F 2.9 °F 9.0 °F 80% 30.27 in 1.2 mi WNW 8.1 mph - 0.00 in Snow Light Snow
3:26 PM 14.0 °F 1.2 °F 10.0 °F 84% 30.28 in 0.5 mi NW 10.4 mph - 0.00 in Fog , Snow Snow
3:53 PM 14.0 °F 2.0 °F 10.0 °F 84% 30.51 in 0.5 mi NNW 9.2 mph - 0.01 in Fog , Snow Snow
4:01 PM 12.9 °F -0.9 °F 9.0 °F 84% 30.29 in 0.2 mi NNW 11.5 mph 18.4 mph 0.00 in Fog , Snow Snow
4:22 PM 12.0 °F -1.3 °F 8.1 °F 84% 30.29 in 0.8 mi NW 10.4 mph - 0.00 in Snow Light Snow
4:29 PM 12.0 °F -1.3 °F 8.1 °F 84% 30.28 in 2.0 mi WNW 10.4 mph - 0.00 in Snow Light Snow
4:37 PM 12.9 °F 1.6 °F 8.1 °F 81% 30.29 in 1.8 mi WNW 8.1 mph - 0.00 in Snow Light Snow
4:43 PM 12.9 °F 0.7 °F 8.1 °F 81% 30.29 in 3.0 mi NW 9.2 mph - 0.00 in Snow Light Snow
4:53 PM 12.9 °F 0.7 °F 8.1 °F 81% 30.52 in 7.0 mi NW 9.2 mph - 0.00 in Snow Light Snow
5:53 PM 12.9 °F -1.6 °F 8.1 °F 81% 30.53 in 10.0 mi WNW 12.7 mph - 0.00 in   Overcast
6:53 PM 10.0 °F -2.9 °F 1.9 °F 70% 30.54 in 10.0 mi NW 9.2 mph - N/A   Clear
7:53 PM 5.0 °F -4.1 °F 1.0 °F 84% 30.57 in 10.0 mi WNW 4.6 mph - N/A   Clear
8:53 PM 3.0 °F -4.4 °F -0.9 °F 84% 30.57 in 10.0 mi WNW 3.5 mph - N/A   Clear
9:53 PM -0.0 °F -14.2 °F -2.9 °F 88% 30.56 in 10.0 mi NNW 8.1 mph - N/A   Clear
10:53 PM -9.9 °F - -11.0 °F 95% 30.55 in 10.0 mi Calm Calm - N/A   Clear
11:53 PM -11.9 °F -27.3 °F -16.1 °F 82% 30.49 in 3.0 mi SSE 6.9 mph - N/A   Clear